Location: LDNL
(36.4545°S, 141.6685°E)
Time: 05:27:29
(UTC+10:00)

Transit 2A Rocket - All Passes

Search period start: 10 August 2022 00:00
Search period end: 20 August 2022 00:00
Orbit: 594 x 907 km, 66.7° (Epoch: 09 August)

Date Brightness Start Highest point End Pass type
(mag) Time Alt. Az. Time Alt. Az. Time Alt. Az.
10 Aug - 05:52:56 10° NNE 05:56:46 19° ENE 06:00:48 10° ESE visible
10 Aug - 07:33:19 10° NW 07:38:47 57° WSW 07:44:43 10° SSE daylight
10 Aug - 09:21:38 10° SW 09:22:49 11° SW 09:24:01 10° SSW daylight
10 Aug - 14:39:21 10° SSE 14:41:55 13° SE 14:44:25 10° ESE daylight
10 Aug - 16:19:42 10° SSW 16:25:43 70° ESE 16:31:16 10° NE daylight
10 Aug - 18:04:20 10° WSW 18:07:32 15° WNW 18:10:36 10° NW daylight
11 Aug - 06:50:19 10° NNW 06:55:53 85° ENE 07:01:55 10° SSE visible
11 Aug - 08:35:42 10° W 08:39:20 17° SW 08:43:06 10° S daylight
11 Aug - 15:37:01 10° SSW 15:42:42 41° SE 15:48:00 10° NE daylight
11 Aug - 17:20:10 10° SW 17:25:03 27° WNW 17:29:38 10° NNW daylight
12 Aug - 06:07:49 10° N 06:13:08 49° ENE 06:18:51 10° SE visible
12 Aug - 07:51:18 10° WNW 07:56:01 26° SW 08:01:01 10° S daylight
12 Aug - 14:54:35 10° S 14:59:32 26° SE 15:04:15 10° ENE daylight
12 Aug - 16:36:45 10° SW 16:42:27 48° WNW 16:47:42 10° N daylight
13 Aug - 05:25:53 10° NNE 05:30:31 28° ENE 05:35:27 10° SE visible
13 Aug - 07:07:32 10° NW 07:12:52 41° SW 07:18:34 10° SSE daylight
13 Aug - 14:12:29 10° S 14:16:13 17° SE 14:19:50 10° E daylight
13 Aug - 15:53:41 10° SSW 15:59:41 85° WNW 16:05:12 10° NNE daylight
14 Aug - 04:44:53 10° NE 04:48:01 15° ENE 04:51:17 10° ESE visible
14 Aug - 06:24:16 10° NW 06:29:51 70° WSW 06:35:54 10° SSE visible
14 Aug - 08:11:07 10° WSW 08:13:39 13° SW 08:16:15 10° SSW daylight
14 Aug - 13:31:37 10° SSE 13:32:45 10° SE 13:33:53 10° SE daylight
14 Aug - 15:10:52 10° SSW 15:16:46 57° ESE 15:22:13 10° NE daylight
14 Aug - 16:54:49 10° WSW 16:58:47 19° WNW 17:02:34 10° NNW daylight
15 Aug - 05:41:28 10° NNW 05:47:00 70° ENE 05:53:00 10° SSE visible
15 Aug - 07:26:05 10° W 07:30:15 20° SW 07:34:36 10° S daylight
15 Aug - 14:28:16 10° S 14:33:42 34° SE 14:38:47 10° ENE daylight
15 Aug - 16:11:01 10° SW 16:16:15 34° WNW 16:21:07 10° N daylight
16 Aug - 04:59:10 10° N 05:04:18 39° ENE 05:09:49 10° SE visible
16 Aug - 06:41:57 10° WNW 06:46:59 31° SW 06:52:19 10° S visible
16 Aug - 13:45:56 10° S 13:50:29 22° SE 13:54:47 10° E daylight
16 Aug - 15:27:44 10° SW 15:33:36 61° WNW 15:38:57 10° NNE daylight
17 Aug - 04:17:29 10° NNE 04:21:44 22° ENE 04:26:12 10° SE visible
17 Aug - 05:58:23 10° NW 06:03:53 51° WSW 06:09:46 10° SSE visible
17 Aug - 13:04:06 10° SSE 13:07:06 14° SE 13:10:01 10° ESE daylight
17 Aug - 14:44:47 10° SSW 14:50:47 79° ESE 14:56:16 10° NNE daylight
17 Aug - 16:30:04 10° WSW 16:32:28 13° W 16:34:47 10° NW daylight
18 Aug - 03:37:14 10° ENE 03:39:17 12° E 03:41:22 10° E visible
18 Aug - 05:15:18 10° NNW 05:20:56 85° WSW 05:27:01 10° SSE visible
18 Aug - 07:01:10 10° WSW 07:04:31 15° SW 07:07:57 10° S daylight
18 Aug - 14:02:04 10° SSW 14:07:48 46° ESE 14:13:06 10° NE daylight
18 Aug - 15:45:28 10° SW 15:50:00 24° WNW 15:54:16 10° NNW daylight
19 Aug - 04:32:40 10° N 04:38:08 56° ENE 04:44:01 10° SE visible
19 Aug - 06:16:34 10° WNW 06:21:10 24° SW 06:25:59 10° S visible
19 Aug - 13:19:33 10° S 13:24:40 28° SE 13:29:28 10° ENE daylight
19 Aug - 15:01:56 10° SW 15:07:26 42° WNW 15:12:30 10° N daylight
